TimeMST,TemperatureF,Dew PointF,Humidity,Sea Level PressureIn,VisibilityMPH,Wind Direction,Wind SpeedMPH,Gust SpeedMPH,PrecipitationIn,Events,Conditions,WindDirDegrees,DateUTC
12:55 AM,30.9,28.0,89,30.11,10.0,Calm,Calm,-,N/A,,Overcast,0,2013-02-18 07:55:00
1:55 AM,28.9,26.1,89,30.12,10.0,NE,4.6,-,N/A,,Mostly Cloudy,40,2013-02-18 08:55:00
2:55 AM,27.0,24.1,89,30.13,10.0,Calm,Calm,-,N/A,,Overcast,0,2013-02-18 09:55:00
3:55 AM,26.1,24.1,92,30.12,10.0,WNW,3.5,-,N/A,,Clear,300,2013-02-18 10:55:00
4:55 AM,24.1,23.0,96,30.12,10.0,Calm,Calm,-,N/A,,Clear,0,2013-02-18 11:55:00
5:55 AM,24.1,21.9,91,30.13,10.0,Calm,Calm,-,N/A,,Overcast,0,2013-02-18 12:55:00
6:55 AM,21.9,21.0,96,30.13,8.0,WNW,3.5,-,N/A,,Partly Cloudy,290,2013-02-18 13:55:00
7:55 AM,21.0,19.0,92,30.14,10.0,Calm,Calm,-,N/A,,Clear,0,2013-02-18 14:55:00
8:12 AM,21.2,19.4,93,30.04,2.0,Calm,Calm,-,N/A,,Mostly Cloudy,0,2013-02-18 15:12:00
8:26 AM,21.2,19.4,93,30.04,0.5,Calm,Calm,-,N/A,Fog,Light Freezing Fog,0,2013-02-18 15:26:00
8:41 AM,21.2,19.4,93,30.04,0.2,Calm,Calm,-,N/A,Fog,Light Freezing Fog,0,2013-02-18 15:41:00
8:55 AM,26.1,24.1,92,30.13,0.5,Calm,Calm,-,N/A,Fog,Light Freezing Fog,0,2013-02-18 15:55:00
9:00 AM,26.6,24.8,93,30.04,3.0,Calm,Calm,-,N/A,,Scattered Clouds,0,2013-02-18 16:00:00
9:55 AM,28.9,27.0,92,30.12,10.0,Calm,Calm,-,N/A,,Clear,0,2013-02-18 16:55:00
10:55 AM,34.0,28.0,79,30.09,10.0,Calm,Calm,-,N/A,,Clear,0,2013-02-18 17:55:00
11:55 AM,35.1,27.0,72,30.07,10.0,Calm,Calm,-,N/A,,Clear,0,2013-02-18 18:55:00
12:55 PM,37.0,27.0,67,30.04,10.0,Calm,Calm,-,N/A,,Clear,0,2013-02-18 19:55:00
1:55 PM,37.0,27.0,67,30.01,10.0,SE,4.6,-,N/A,,Mostly Cloudy,130,2013-02-18 20:55:00
2:55 PM,37.9,23.0,55,29.99,10.0,SSE,6.9,-,N/A,,Mostly Cloudy,160,2013-02-18 21:55:00
3:55 PM,37.9,19.9,48,29.98,10.0,SSE,4.6,-,N/A,,Mostly Cloudy,150,2013-02-18 22:55:00
4:55 PM,37.9,23.0,55,29.96,10.0,NNE,4.6,-,N/A,,Mostly Cloudy,30,2013-02-18 23:55:00
5:55 PM,32.0,25.0,75,29.96,10.0,NE,5.8,-,N/A,,Clear,40,2013-02-19 00:55:00
6:55 PM,30.9,25.0,79,29.94,10.0,North,5.8,-,N/A,,Scattered Clouds,10,2013-02-19 01:55:00
7:55 PM,30.9,24.1,76,29.93,10.0,Calm,Calm,-,N/A,,Mostly Cloudy,0,2013-02-19 02:55:00
8:55 PM,30.9,23.0,72,29.90,10.0,Calm,Calm,-,N/A,,Overcast,0,2013-02-19 03:55:00
9:55 PM,27.0,24.1,89,29.90,10.0,Calm,Calm,-,N/A,,Mostly Cloudy,0,2013-02-19 04:55:00
10:55 PM,28.9,23.0,78,29.88,10.0,Calm,Calm,-,N/A,,Overcast,0,2013-02-19 05:55:00
11:55 PM,28.0,23.0,81,29.86,10.0,Calm,Calm,-,N/A,,Partly Cloudy,0,2013-02-19 06:55:00